Regional Weather Roundup
Issued by NWS

Home | Current Version | Previous Version | Graphics & Text | Print | Product List | Glossary On
Versions: 1 2 3 4 5 6 7 8 9 10 11 12 13 14 15 16 17 18 19 20 21 22 23 24 25 26 27 28 29 30 31 32 33 34 35 36 37 38 39 40 41 42 43 44 45 46 47 48 49 50
000
ASUS43 KMPX 210210
RWRMN
WEATHER ROUNDUP FOR MINNESOTA
NATIONAL WEATHER SERVICE TWIN CITIES/CHANHASSEN MN
900 PM CDT FRI OCT 20 2017


NOTE: "FAIR" INDICATES FEW OR NO CLOUDS BELOW 12,000 FEET WITH NO
SIGNIFICANT WEATHER AND/OR OBSTRUCTIONS TO VISIBILITY. N/A MEANS
CURRENT SKY AND/OR WEATHER CONDITIONS ARE NOT AVAILABLE.

MNZ060>063-068>070-210300-
   Twin Cities Metro

CITY           SKY/WX    TMP DP  RH WIND       PRES   REMARKS
TWIN CITIES    PTCLDY    68  48  48 S16       29.74S
ST PAUL        CLOUDY    66  48  52 SE14      29.74S
CRYSTAL        CLEAR     67  45  45 S14G23    29.71S
BLAINE         MOCLDY    70  46  43 S18G26    29.72S
LAKEVILLE      CLOUDY    64  48  55 S15G28    29.74S
EDEN PRAIRIE   CLEAR     68  48  48 S15G29    29.71S
SOUTH ST PAUL  CLOUDY    68  46  45 S10G22    29.74S
LAKE ELMO      FAIR      66  46  48 S17       29.76S
$$
MNZ001>005-007-008-013>017-022>024-027-028-210300-
   Northwest Minnesota

CITY           SKY/WX    TMP DP  RH WIND       PRES   REMARKS
BEMIDJI        MOCLDY    69  50  51 S18G30    29.54S
HALLOCK        CLOUDY    72  54  53 S23       29.36S
ROSEAU         CLOUDY    70  55  60 S14       29.43F
WARROAD        CLOUDY    66  55  68 SE14      29.46S
THIEF RVR FALL CLOUDY    70  52  52 S21G32    29.45F
CROOKSTON      CLOUDY    72  54  53 S29G39    29.41S
FOSSTON        CLOUDY    68  48  49 S21G31    29.49R
DETROIT LAKES  CLOUDY    68  52  56 S16       29.54S
MOORHEAD       CLEAR     70  54  56 S26G32    29.45S
PARK RAPIDS    PTCLDY    69  50  50 S22G31    29.57S
MAHNOMEN       FAIR      68  52  55 S15G23    29.49S
$$
MNZ006-009>011-018-025>026-210300-
   North Central Minnesota

CITY           SKY/WX    TMP DP  RH WIND       PRES   REMARKS
BAUDETTE       MOCLDY    68  50  52 S17G28    29.50F
FLAG ISLAND    CLOUDY    59  48  67 S20       29.45S
INTL FALLS     PTCLDY    68  47  46 S9        29.57S
WASKISH        CLEAR     70  52  52 S10G22    29.52F
BIG FORK       MOCLDY    70  46  43 S15G24    29.60S
LONGVILLE      CLEAR     68  46  45 S20G29    29.61S
GRAND RAPIDS   PTCLDY    66  48  52 S15       29.65S
CRANE LAKE     PTCLDY    66  45  45 S9        29.64S
ORR            PTCLDY    66  43  42 S12G18    29.62R
COOK           CLOUDY    68  45  42 S14G28    29.66R
WALKER         FAIR      67  49  52 S17G24    29.58R
$$
MNZ012-019>021-037-210300-
   Northeast Minnesota

CITY           SKY/WX    TMP DP  RH WIND       PRES   REMARKS
DULUTH         MOCLDY    64  44  48 S15G23    29.72S
ELY            MOCLDY    64  43  45 S8        29.70R
HIBBING        PTCLDY    66  43  43 S13G21    29.67S
EVELETH        CLOUDY    63  35  35 SE7       29.71R
DULUTH HARBOR  PTCLDY    57  52  82 S7        29.72R
TWO HARBORS    MOCLDY    59  48  67 CALM      29.72R
SILVER BAY     CLOUDY    52  46  82 CALM      29.73R
GRAND MARAIS     N/A     52  48  86 N6        29.75S
G MARAIS ARPRT CLOUDY    57  41  54 S6        29.79R
$$
MNZ029>031-032-039>041-046>048-054>057-064-210300-
   West Central Minnesota

CITY           SKY/WX    TMP DP  RH WIND       PRES   REMARKS
FERGUS FALLS   CLEAR     66  54  63 S18G24    29.52F
WHEATON        PTCLDY    66  54  63 SE15      29.51S
MORRIS         PTCLDY    66  54  63 SE13      29.54F
ALEXANDRIA     PTCLDY    68  52  56 S21G31    29.60F
ELBOW LAKE     FAIR      65  53  64 SE17G23   29.54F
WADENA         PTCLDY    66  52  59 S16G23    29.57F
GLENWOOD       PTCLDY    66  52  59 S20       29.61F
APPLETON       PTCLDY    72  54  53 S10G18    29.55S
BENSON         PTCLDY    70  55  60 S14G22    29.59S
ORTONVILLE     CLOUDY    70  55  60 N15G23    29.52F
MADISON        CLEAR     72  57  60 S18       29.54F
WILLMAR        FAIR      68  54  60 S15G22    29.63F
$$
MNZ033>034-036-042>043-049>051-058-059-210300-
   Central Minnesota

CITY           SKY/WX    TMP DP  RH WIND       PRES   REMARKS
ST CLOUD       PTCLDY    68  48  48 S21G30    29.66S
SAUK CENTRE    FAIR      65  50  58 S16G23    29.62F
PAYNESVILLE    PTCLDY    67  51  56 S14G25    29.65S
AITKIN         CLEAR     64  46  52 S13       29.65R
PINE RIVER     CLEAR     66  46  48 S17G24    29.65S
BRAINERD       CLEAR     67  47  48 S21G28    29.65R
STAPLES        CLEAR     66  46  48 S20G26    29.61R
LONG PRAIRIE   FAIR      64  50  59 SE20G26   29.63S
LITTLE FALLS   CLEAR     66  37  34 S13G21    29.65S
LITCHFIELD     CLEAR     68  52  56 SE7G16    29.66F
BUFFALO        CLEAR     67  47  48 SE10G20   29.70S
MAPLE LAKE     CLEAR     68  50  53 S9G17     29.69F
HUTCHINSON     CLOUDY    67  52  58 SE9G17    29.68F
$$
MNZ037-044-045-052-053-210300-
   East Central Minnesota

CITY           SKY/WX    TMP DP  RH WIND       PRES   REMARKS
PRINCETON      PTCLDY    70  48  46 SE18G24   29.69S
MORA           CLOUDY    64  45  48 S9G16     29.72S
CAMBRIDGE      PTCLDY    70  50  49 S12G24    29.71S
RUSH CITY      PTCLDY    66  43  43 S13G18    29.73R
MOOSE LAKE     PTCLDY    66  41  39 S9G20     29.69R
HINCKLEY       FAIR      66  43  42 S9        29.72S
CLOQUET        PTCLDY    68  36  30 S10G17    29.71S
MCGREGOR       CLEAR     66  45  45 S12G21    29.68R
$$
MNZ071>073-080-081-089-090-097-098-210300-
   Southwest Minnesota

CITY           SKY/WX    TMP DP  RH WIND       PRES   REMARKS
MONTEVIDEO     PTCLDY    68  55  64 S13G20    29.57F
GRANITE FALLS  PTCLDY    70  56  63 SE17G25   29.61F
CANBY          PTCLDY    70  56  61 S16G25    29.55F
MARSHALL       CLOUDY    69  56  62 S23G30    29.58F
REDWOOD FALLS  CLEAR     68  53  58 S24G31    29.63S
OLIVIA         CLEAR     70  54  56 S16G22    29.63S
PIPESTONE      CLOUDY    66  55  68 S17G25    29.61S
WORTHINGTON    CLEAR     66  56  70 S17G25    29.65S
JACKSON        CLOUDY    66  54  63 S17G25    29.69F
TRACY          CLOUDY    69  58  66 S17G28    29.62F
SLAYTON        CLOUDY    67  57  68 S16G25    29.64S
$$
MNZ065>067-074>077-082>085-091>093-210300-
   South Central Minnesota

CITY           SKY/WX    TMP DP  RH WIND       PRES   REMARKS
MANKATO        CLEAR     66  50  56 S17G25    29.72S
NEW ULM        CLEAR     66  48  52 S18G26    29.67S
ST JAMES       CLEAR     66  52  59 SE20G25   29.69F
FAIRMONT       CLOUDY    65  52  62 S21G28    29.71F
GLENCOE        CLEAR     68  49  50 SE13G23   29.68S
FARIBAULT      CLEAR     66  48  52 S17G24    29.76S
OWATONNA       CLOUDY    66  50  55 S17G28    29.77S
WASECA         CLEAR     64  46  52 S18G25    29.76F
$$
MNZ078>079-086>088-094>096-210300-
   Southeast Minnesota

CITY           SKY/WX    TMP DP  RH WIND       PRES   REMARKS
ROCHESTER      CLOUDY    63  47  55 S18G25    29.81F
RED WING       CLOUDY    70  39  32 S10G24    29.77S
STANTON        CLOUDY    67  48  50 S17G26    29.74S
DODGE CENTER   PTCLDY    64  46  52 S21G26    29.80S
WINONA         PTCLDY    70  45  40 S6        29.82S
AUSTIN         CLOUDY    64  48  55 S13G21    29.81R
PRESTON        CLOUDY    63  45  51 S20G25    29.84S
$$
ABBREVIATIONS USED IN REMARKS
   TC - TEMPERATURES IN CELSIUS
  WCI - WIND CHILL INDEX
   HX - HEAT INDEX
  VSB - VISIBILITY
$$



USA.gov is the U.S. government's official web portal to all federal, state and local government web resources and services.